Regional Weather Roundup
Issued by NWS

Home | Current Version | Previous Version | Text Only | Print | Product List | Glossary On
Versions: 1 2 3 4 5 6 7 8 9 10 11 12 13 14 15 16 17 18 19 20 21 22 23 24 25 26 27 28 29 30 31 32 33 34 35 36 37 38 39 40 41 42 43 44 45 46 47 48 49 50
000
ASUS43 KMKX 262100
RWRWI

WISCONSIN REGIONAL WEATHER ROUNDUP
NATIONAL WEATHER SERVICE MILWAUKEE/SULLIVAN WI
300 PM CST FRI DEC 26 2014

NOTE: "FAIR" INDICATES FEW OR NO CLOUDS BELOW 12,000 FEET WITH NO
SIGNIFICANT WEATHER AND/OR OBSTRUCTIONS TO VISIBILITY.

WIZ001-002-006>008-014>016-023>028-262200-
NORTHWEST WISCONSIN

CITY           SKY/WX    TMP DP  RH WIND       PRES   REMARKS
SUPERIOR ARPT  CLOUDY    32  25  75 CALM      30.07R
ASHLAND        CLOUDY    31  27  85 N7        30.05R WCI  24
HAYWARD        CLOUDY    31  26  82 N6        30.02R WCI  25
SIREN          CLOUDY    31  26  81 N9        30.03S WCI  23
CUMBERLAND     CLOUDY    30  27  86 N10G16    29.99R WCI  21
RICE LAKE      CLOUDY    32  28  83 N9        30.01R WCI  24
CHETEK         CLOUDY    32  29  88 CALM      29.99R
LADYSMITH      CLOUDY    33  30  88 N8        29.99R WCI  26
EAU CLAIRE     CLOUDY    34  28  79 N6        29.99R WCI  29
MENOMONIE      CLOUDY    34  30  85 N7        30.00R WCI  28
NEW RICHMOND   CLOUDY    32  30  92 N10       30.02R WCI  23
OSCEOLA        CLOUDY    32  31  96 N7        30.06R WCI  25
$$

WIZ003>005-009-010-017-018-262200-
NORTH CENTRAL WISCONSIN

CITY           SKY/WX    TMP DP  RH WIND       PRES   REMARKS
MANITOWISH WTR CLOUDY    31  30  98 CALM      29.96R
ARBOR VITAE    CLOUDY    32  30  92 N3        29.96R
WOODRUFF       CLOUDY    32  30  92 N3        29.96R
RHINELANDER    CLOUDY    30  28  92 N6        29.96R WCI  24
EAGLE RIVER    CLOUDY    30  29  97 NE3       29.95R
LAND O LAKES   CLOUDY    31  29  93 N3        29.96R
PHILLIPS       CLOUDY    31  28  90 N7        29.97R WCI  24
TOMAHAWK       CLOUDY    32  29  91 CALM      29.96R FOG
MEDFORD        CLOUDY    32  30  92 NE7       29.94R FOG     WCI  26
MERRILL        CLOUDY    33  32  95 NE7       29.95R FOG     WCI  27
$$

WIZ029-030-035-036-043>047-262200-
CENTRAL WISCONSIN

CITY           SKY/WX    TMP DP  RH WIND       PRES   REMARKS
WAUSAU         CLOUDY    34  30  85 NE3       29.94R
MOSINEE        PTSUNNY   34  34 100 NE5       29.96R WCI  30
MARSHFIELD     MOSUNNY   36  31  82 NE6       29.95R HAZE    WCI  31
STEVENS POINT  FOG       31  30  99 NE6       29.96R VSB 1/2 WCI  25
WAUPACA        FOG       34  33  96 N10       29.97R VSB 1   WCI  26
WAUTOMA        NOT AVBL
WISC RAPIDS    PTSUNNY   40  32  73 NE7       29.96R
CAMP DOUGLAS   NOT AVBL
$$

WIZ011>013-019>022-031-037>040-048>050-262200-
NORTHEAST WISCONSIN

CITY           SKY/WX    TMP DP  RH WIND       PRES   REMARKS
ANTIGO         CLOUDY    32  32 100 NE5       29.94R FOG     WCI  27
SHAWANO        CLOUDY    35  34  96 CALM      29.98R FOG
OCONTO         CLOUDY    35  34  99 NW3       29.98R
STURGEON BAY   CLOUDY    36  30  80 NW8       29.99R WCI  29
GREEN BAY      PTCLDY    42  36  79 CALM      29.97R
MANITOWOC      NOT AVBL
APPLETON       MOSUNNY   41  34  75 VRB5      29.95R
CLINTONVILLE   CLOUDY    32  32 100 N3        29.98R FOG
OSHKOSH        MOSUNNY   44  37  76 S6        29.95R
$$

WIZ032>034-041-042-053>061-262200-
SOUTHWEST WISCONSIN

CITY           SKY/WX    TMP DP  RH WIND       PRES   REMARKS
LA CROSSE      MOSUNNY   41  32  70 W8        29.96R
SPARTA         PTSUNNY   43  32  64 CALM      29.94S
VIROQUA        MOSUNNY   40  34  80 CALM      29.93R
BOSCOBEL       CLOUDY    47  33  58 SW5       29.94R
PRAIRIE DU CHI CLOUDY    45  32  60 CALM      29.93S
PLATTEVILLE    CLOUDY    44  36  74 S7        29.94S
$$

WIZ056-057-062-063-064-067-068-262200-
SOUTH CENTRAL WISCONSIN

CITY           SKY/WX    TMP DP  RH WIND       PRES   REMARKS
REEDSBURG      PTSUNNY   44  35  70 S5        29.93R
BARABOO/DELLS  PTSUNNY   44  33  65 S8        29.92R
LONE ROCK      NOT AVBL
MINERAL POINT  CLOUDY    45  34  65 S7        29.93R
MADISON        PTSUNNY   44  35  70 S9        29.95R
MIDDLETON      MOSUNNY   46  34  62 S6        29.94R
WATERTOWN      MOSUNNY   43  36  75 SW3       29.96R
MONROE         PTSUNNY   45  36  70 SW7       29.93F
JANESVILLE     MOSUNNY   48  36  61 S8        29.95S
$$

WIZ051-052-058>065-066-070>072-262200-
SOUTHEAST WISCONSIN

CITY           SKY/WX    TMP DP  RH WIND       PRES   REMARKS
MILWAUKEE      PTSUNNY   48  35  60 SW10      29.98R
WAUKESHA       MOSUNNY   45  34  65 SW12      29.94F
MILWAUKEE/TIMM SUNNY     46  34  61 SW5       29.98R
RACINE         PTSUNNY   48  36  63 SW8       29.99R
BURLINGTON     PTSUNNY   47  36  66 SW9       29.97R
KENOSHA        PTSUNNY   49  38  65 S12       29.98R
FOND DU LAC    MOSUNNY   45  35  68 SW6       29.95R
SHEBOYGAN      MOSUNNY   45  35  68 S3        29.96R
WEST BEND      MOSUNNY   43  32  65 SW7       29.95S
JUNEAU         MOSUNNY   43  35  73 S7        29.96R
$$

LSZ147-162-262200-
LAKE SUPERIOR

STATION/POSITION TIME  TEMP    WIND        PRES    WAVE
                       AIR SEA DIR/SP/G            HT/PER
                 (UTC) (F)     (DEG/KT/KT) (MB)    (FT/S)
DEVILS ISLAND    2000   32     360/  6/  7 1018.0R
PORT WING        2040   32     330/  5/  7 1018.3R
SAXON HARBOR     2000   33     360/  8/  9 1016.9
$$

LMZ867-665-643>646-262200-
LAKE MICHIGAN

STATION/POSITION TIME  TEMP    WIND        PRES    WAVE
                       AIR SEA DIR/SP/G            HT/PER
                 (UTC) (F)     (DEG/KT/KT) (MB)    (FT/S)
CHAMBERS ISLAND  2000   35     360/  6/  7 1015.2R
NORTHPORT PIER   2000   36     310/  5/  6 1014.9R
SISTER BAY       2013          360/ 12/ 13   N/A
ALGOMA LAKESHORE 2015             CALM       N/A
KEWAUNEE LAKESHO 2000   37     170/  3/  5 1013.3R
SHEBOYGAN LAKESH 2000   43 39  170/  7/  8 1014.9R
PORT WASHINGTON  2040   47     250/  4/  8 1015.6R
MILWAUKEE LAKESH 2000   47     250/  7/  9   N/A
KENOSHA   LAKESH 2000   49     230/  7/ 10 1014.9S
$$

TC  - TEMPERATURE IN CELSIUS
VSB - VISIBILITY IN STATUTE MILES
WCI - WIND CHILL INDEX
HX  - HEAT INDEX



USA.gov is the U.S. government's official web portal to all federal, state and local government web resources and services.